APSTAR 5 (TELSTAR 18)

Last updated on July 19, 2019, 4:11 a.m. UTC

1 28364U 04024A   19199.25529536  .00000037  00000-0  00000+0 0  9998
2 28364   0.6394  97.0221 0005276 270.7211  61.1141  0.99044739 55221
UTC
Height (km)
Latitude
Longitude
Inclination
Orbital Period
UTC large
Height (km)
Speed (km/s)
/
Latitude / Longitude
Inclination (degrees)
Orbital Period (minutes)
Azimuth
Elevation
Range (km)
Doppler Factor
iOS Compass Heading
iOS Angle

Next 30 passes for location: Hong Kong

Rise time Rise Azimuth (degrees) Set time Set Azimuth (degrees) Duration Max altitude (degrees)

No matching passes for this satellites